Weather History for Erzurum, Turkey

Change the Weather History Date:

Friday, October 26, 2012

  Actual Average Record
Temperature  
Mean Temperature 42 °F -  
Max Temperature 46 °F 46 °F 64 °F (2007)
Min Temperature 37 °F 28 °F 15 °F (1999)
Degree Days  
Heating Degree Days 24    
Moisture  
Dew Point 41 °F    
Average Humidity 94    
Maximum Humidity 100    
Minimum Humidity 87    
Precipitation  
Precipitation 0.24 in 0.05 in - ()
Sea Level Pressure  
Sea Level Pressure 29.96 in    
Wind  
Wind Speed 4 mph ()    
Max Wind Speed 12 mph    
Max Gust Speed -    
Visibility 6.2 miles    
Events Rain    
Averages and records for this station are not official NWS values.
T = Trace of Precipitation, MM = Missing Value Source: Averaged Metar Reports

Daily Weather History Graph

Daily Weather History Graph

Search for Another Location

Airport:

Trip Planner

Search our weather history database for the weather conditions in past years. The results will help you decide how hot, cold, wet, or windy it might be!

Date:

Astronomy

Oct. 26, 2012 Rise Set
Actual Time 6:37 AM EEST 5:20 PM EEST
Civil Twilight 6:09 AM EEST 5:47 PM EEST
Nautical Twilight 5:38 AM EEST 6:19 PM EEST
Astronomical Twilight 5:06 AM EEST 6:50 PM EEST
Moon 3:25 PM EEST (10/26) 3:12 AM EEST (10/26)
Length of Visible Light 11h 37m
Length of Day
10h 42m
Waxing Gibbous, 89% of the Moon is Illuminated
Oct 26
Waxing Gibbous
Oct 29
Full
Nov 7
Last Quarter
Nov 14
New
Nov 20
First Quarter

Hourly Weather History & Observations

Time (EEST) Temp. Windchill Dew Point Humidity Pressure Visibility Wind Dir Wind Speed Gust Speed Precip Events Conditions
12:20 AM 41.0 °F - 39.2 °F 93% 29.95 in 6.2 mi Variable 1.2 mph - N/A   Mostly Cloudy
12:50 AM 41.0 °F - 39.2 °F 93% 29.95 in 6.2 mi Variable 2.3 mph - N/A   Mostly Cloudy
1:20 AM 39.2 °F - 39.2 °F 100% 29.95 in 6.2 mi North 1.2 mph - N/A   Mostly Cloudy
1:50 AM 39.2 °F - 39.2 °F 100% 29.95 in 6.2 mi SE 2.3 mph - N/A   Mostly Cloudy
2:20 AM 39.2 °F - 39.2 °F 100% 29.95 in 6.2 mi Variable 1.2 mph - N/A   Mostly Cloudy
2:50 AM 37.4 °F - 37.4 °F 100% 29.92 in 6.2 mi Variable 2.3 mph - N/A   Mostly Cloudy
3:00 AM 38 °F - 38 °F 99%  in 12 mi NNE 2.3 mph - -   Mostly Cloudy
3:20 AM 37.4 °F - 37.4 °F 100% 29.92 in 6.2 mi Variable 1.2 mph - N/A   Mostly Cloudy
3:50 AM 39.2 °F - 39.2 °F 100% 29.92 in 6.2 mi Calm Calm - N/A   Mostly Cloudy
4:20 AM 39.2 °F - 39.2 °F 100% 29.92 in 6.2 mi NW 2.3 mph - N/A   Mostly Cloudy
4:50 AM 39.2 °F - 39.2 °F 100% 29.92 in 6.2 mi WSW 2.3 mph - N/A   Mostly Cloudy
5:20 AM 39.2 °F - 39.2 °F 100% 29.92 in 6.2 mi Variable 1.2 mph - N/A   Mostly Cloudy
5:50 AM 41.0 °F - 41.0 °F 100% 29.92 in 6.2 mi Variable 1.2 mph - N/A   Mostly Cloudy
6:20 AM 41.0 °F - 41.0 °F 100% 29.92 in 6.2 mi Variable 1.2 mph - N/A   Mostly Cloudy
6:50 AM 41.0 °F - 41.0 °F 100% 29.92 in 6.2 mi Calm Calm - N/A   Mostly Cloudy
7:20 AM 42.8 °F 40.1 °F 42.8 °F 100% 29.92 in 6.2 mi NE 4.6 mph - N/A   Mostly Cloudy
7:50 AM 44.6 °F 39.7 °F 42.8 °F 93% 29.92 in 6.2 mi East 9.2 mph - N/A Rain Light Rain Showers
8:20 AM 44.6 °F 39.7 °F 42.8 °F 93% 29.95 in 6.2 mi East 9.2 mph - N/A Rain Light Rain Showers
8:50 AM 44.6 °F 41.4 °F 42.8 °F 93% 29.95 in 4.3 mi East 5.8 mph - N/A Rain Light Rain Showers
9:00 AM 45 °F - 43 °F 90%  in 4 mi East 5.8 mph - - Rain Light Rain Showers
9:20 AM 44.6 °F 40.7 °F 42.8 °F 93% 29.95 in 4.3 mi East 6.9 mph - N/A Rain Light Rain Showers
9:50 AM 44.6 °F 39.7 °F 42.8 °F 93% 29.95 in 4.3 mi East 9.2 mph - N/A Rain Light Rain Showers
10:20 AM 44.6 °F 39.7 °F 42.8 °F 93% 29.95 in 5.0 mi ENE 9.2 mph - N/A Rain Light Rain Showers
10:50 AM 46.4 °F 41.5 °F 42.8 °F 87% 29.95 in 5.6 mi East 10.4 mph - N/A Rain Light Rain Showers
11:20 AM 46.4 °F 41.5 °F 42.8 °F 87% 29.95 in 5.6 mi ENE 10.4 mph - N/A Rain Light Rain Showers
11:50 AM 44.6 °F 39.7 °F 42.8 °F 93% 29.95 in 6.2 mi East 9.2 mph - N/A Rain Light Rain Showers
12:20 PM 46.4 °F 41.5 °F 42.8 °F 87% 29.95 in 6.2 mi ENE 10.4 mph - N/A Rain Light Rain Showers
12:50 PM 46.4 °F 41.9 °F 42.8 °F 87% 29.95 in 6.2 mi ENE 9.2 mph - N/A Rain Light Rain Showers
1:20 PM 46.4 °F 41.9 °F 42.8 °F 87% 29.92 in 6.2 mi NE 9.2 mph - N/A Rain Light Rain Showers
1:50 PM 46.4 °F 42.9 °F 42.8 °F 87% 29.92 in 6.2 mi NE 6.9 mph - N/A Rain Light Rain Showers
2:20 PM 46.4 °F 42.9 °F 42.8 °F 87% 29.92 in 6.2 mi NE 6.9 mph - N/A Rain Light Rain Showers
2:50 PM 46.4 °F 43.5 °F 42.8 °F 87% 29.92 in 6.2 mi NE 5.8 mph - N/A Rain Light Rain Showers
3:20 PM 46.4 °F 43.5 °F 42.8 °F 87% 29.95 in 6.2 mi ENE 5.8 mph - N/A Rain Light Rain Showers
3:50 PM 46.4 °F 44.3 °F 42.8 °F 87% 29.95 in 6.2 mi NNE 4.6 mph - N/A Rain Light Rain Showers
4:20 PM 46.4 °F - 42.8 °F 87% 29.95 in 6.2 mi Variable 2.3 mph - N/A Rain Light Rain Showers
4:50 PM 44.6 °F 41.4 °F 44.6 °F 100% 29.95 in 6.2 mi WNW 5.8 mph - N/A Rain Light Rain Showers
5:20 PM 42.8 °F 36.6 °F 42.8 °F 100% 29.95 in 6.2 mi West 11.5 mph - N/A Rain Light Rain Showers
5:50 PM 42.8 °F 37.0 °F 41.0 °F 93% 29.98 in 6.2 mi West 10.4 mph - N/A Rain Light Rain Showers
6:20 PM 42.8 °F 36.6 °F 41.0 °F 93% 29.98 in 6.2 mi West 11.5 mph - N/A Rain Light Rain Showers
6:50 PM 42.8 °F 36.6 °F 41.0 °F 93% 29.98 in 6.2 mi West 11.5 mph - N/A Rain Light Rain Showers
7:20 PM 42.8 °F 37.0 °F 41.0 °F 93% 29.98 in 6.2 mi West 10.4 mph - N/A Rain Light Rain Showers
7:50 PM 42.8 °F 37.0 °F 41.0 °F 93% 30.01 in 6.2 mi West 10.4 mph - N/A Rain Light Rain Showers
8:20 PM 42.8 °F 37.5 °F 41.0 °F 93% 30.01 in 6.2 mi West 9.2 mph - N/A Rain Light Rain Showers
8:50 PM 42.8 °F 37.5 °F 41.0 °F 93% 30.01 in 6.2 mi West 9.2 mph - N/A Rain Light Rain Showers
9:00 PM 42 °F - 41 °F 95%  in 12 mi West 9.2 mph - - Rain Heavy Rain Showers
9:20 PM 42.8 °F 38.0 °F 41.0 °F 93% 30.01 in 6.2 mi West 8.1 mph - N/A Rain Light Rain Showers
9:50 PM 42.8 °F 38.6 °F 41.0 °F 93% 30.04 in 6.2 mi West 6.9 mph - N/A Rain Light Rain Showers
10:20 PM 41.0 °F - 41.0 °F 100% 30.04 in 6.2 mi Variable 2.3 mph - N/A Rain Light Rain Showers
10:50 PM 41.0 °F 37.1 °F 41.0 °F 100% 30.04 in 6.2 mi West 5.8 mph - N/A Rain Light Rain Showers
11:20 PM 42.8 °F 40.1 °F 41.0 °F 93% 30.04 in 6.2 mi WSW 4.6 mph - N/A Rain Light Rain Showers
11:50 PM 42.8 °F 39.3 °F 41.0 °F 93% 30.04 in 6.2 mi WSW 5.8 mph - N/A Rain Light Rain Showers